Find OneWeb SL0245

NORAD ID: 48778 Int'l Des: 2021-045 Owner: ONEWEBN Country: UK Constellation: oneweb operational
LEOCIRCULARPOLARONEWEB_TYPE

リアルタイム位置

3D地球を読み込み中...

OneWeb SL0245について

説明を読み込み中...

次回通過

Passes for default location (London). Set your location on the main map for personalized predictions.

高度履歴

Loading altitude history...

軌道要素

1 48778U 21045M 26127.83218319 .00000150 00000-0 36416-3 0 9998
2 48778 87.8976 267.2344 0001620 96.9279 263.2036 13.15548651239072
Epoch: May 7, 2026 • Age: 11 hours

現在のステータス

高度 1204.6 km
速度 7.25 km/s
衛星直下点 1.56°N, 62.91°W
打ち上げ日 May 28, 2021
運用期間 4.9 years
タイプ internet

技術仕様

分類 Payload
質量 148.00 kg
乾燥質量 140.00 kg
総質量 148.00 kg
長さ 1.30 m
直径 1.00 m
スパン 5.00 m
形状 Trapezoid+2 pan
製造者 ONEWUS
バスタイプ ARROW
フェーズステータス In Orbit
所有者/国 ONEWEBN/UK

Most Searched